FENGYUN 1C DEB

Satellite information

Favourite Embed

Satellite Type and Status

DEBRISIN ORBIT

Key statistics

Satellite FENGYUN 1C DEB at a glance.

Uptime

9498

Days in orbit

Revolutions

≈ 14.2

Per day

Orbit

SSO

Sun Synchronous Orbit

Inclination

99.0

Latest

Satellite identification and parameters

Extended collection of information and parameters for FENGYUN 1C DEB.

Object identification

Identified? True

Debris? True

Object name: FENGYUN 1C DEB

International designator: 1999-025CMW

Object number (NORAD): 31945

Object ID (CCSDS): 31945

Country: PEOPLES REPUBLIC OF CHINA (PRC)

Current information (Y/N): Y

RCS size: SMALL

Orbital parameters

Period: 101.46 minutes

Inclination: 98.9667 deg

SMA: 7205.932 km

Apoapsis: 873.541 km

Periapsis: 782.053 km

RAAN: 199.5984 deg

Eccentricy: 0.0063481

Argument of periapsis: 197.1371 deg

Mean anomaly: 162.7661 deg

Mean motion: 14.19278161 rev/day

Mean motion (dot): 0.00003826 rev/day2

B* drag term: 0.001808 1/REarth

Two-line elements (TLE)

Creation date: May 7, 2025, 3:14 a.m.

Reference frame: TEME

Reference center: EARTH

Epoch: May 6, 2025, 3:53 a.m. UTC

TLE line 0: 0 FENGYUN 1C DEB

TLE line 1: 1 31945U 99025CMW 25126.16214720 .00003826 00000-0 18080-2 0 9994

TLE line 2: 2 31945 98.9667 199.5984 0063481 197.1371 162.7661 14.19278161920656

Live tracking on map

Real-time ground track for satellite FENGYUN 1C DEB.

In-orbit conjunctions

A list of the most updated potential collisions computed for object FENGYUN 1C DEB.

Target Orbit TCA Probability of collision Miss distance Type
FENGYUN 1C DEB SSO 2024-11-08 06:46:47 0.001418355 60.0 (m) DEBRIS
FENGYUN 1C DEB SSO 2024-11-08 05:05:06 0.0001429791 792.0 (m) DEBRIS

Associated space launch

Chinese polar orbiting meteorological satellite

FENGYUN 1C DEB was lifted into orbit during the mission ‘Long March 4B | Feng Yun 1C’, on board a Long March 4B space rocket.

The launch took place on May 10, 1999, 1:33 a.m. from Launch Complex 7.

For more information about the launch, click the button.

Launch to space Long March 4B | Feng Yun 1C
Long March 4B | Feng Yun 1C

Agency: N/A

Status: Launch Successful

Launch date: May 10, 1999, 1:33 a.m. UTC

Rocket: Long March 4B

Launch pad: Launch Complex 7

Location: Taiyuan Satellite Launch Center, People's Republic of China

...

Latest news about this satellite

There are no fresh news available about this satellite. Check back as we update our databases every day.


Newsletter sign-up

Weekly statistics, charts and insights to help you stay on top of the space industry.